Change the Weather History Date:

Wednesday, September 21, 2011

  Actual Average Record
Temperature  
Mean Temperature 56 °F 63 °F  
Max Temperature 71 °F 76 °F 97 °F (1936)
Min Temperature 41 °F 50 °F 28 °F (1995)
Degree Days  
Heating Degree Days 9 5  
Month to date heating degree days 97 51  
Since 1 July heating degree days 97 61  
Cooling Degree Days 0 2  
Month to date cooling degree days 47 94  
Year to date cooling degree days 1086 1008  
Growing Degree Days 7 (Base 50)    
Moisture  
Dew Point 38 °F    
Average Humidity 54    
Maximum Humidity 83    
Minimum Humidity 25    
Precipitation  
Precipitation 0.00 in 0.08 in 0.80 in (1911)
Month to date precipitation 0.83 1.60  
Year to date precipitation 23.64 22.37  
Snow  
Snow 0.00 in 0.00 in - ()
Month to date snowfall 0.0 0.0  
Since 1 July snowfall 0.0 0.0  
Since 1 September snowfall 0.0 0.0  
Snow Depth 0.00 in    
Sea Level Pressure  
Sea Level Pressure 30.17 in    
Wind  
Wind Speed 10 mph (NW)    
Max Wind Speed 21 mph    
Max Gust Speed 29 mph    
Visibility 10 miles    
Events      
T = Trace of Precipitation, MM = Missing Value Source: NWS Daily Summary

Daily Weather History Graph

Daily Weather History Graph

Search for Another Location

Airport or City:

Trip Planner

Search our weather history database for the weather conditions in past years. The results will help you decide how hot, cold, wet, or windy it might be!

Date:

Astronomy

Sep. 21, 2011 Rise Set
Actual Time 7:19 AM CDT 7:32 PM CDT
Civil Twilight 6:52 AM CDT 7:59 PM CDT
Nautical Twilight 6:19 AM CDT 8:32 PM CDT
Astronomical Twilight 5:46 AM CDT 9:04 PM CDT
Moon 12:38 AM CDT (9/21) 3:46 PM CDT (9/21)
Length of Visible Light 13h 07m
Length of Day
12h 12m
Last Quarter, 38% of the Moon is Illuminated
Sep 21
Last Quarter
Sep 27
New
Oct 3
First Quarter
Oct 11
Full
Oct 19
Last Quarter

Hourly Weather History & Observations

Time (CDT) Temp. Windchill Dew Point Humidity Pressure Visibility Wind Dir Wind Speed Gust Speed Precip Events Conditions
12:53 AM 46.9 °F - 39.0 °F 74% 30.14 in 10.0 mi NW 6.9 mph - N/A   Clear
1:53 AM 46.4 °F 43.5 °F 37.4 °F 71% 30.15 in 10.0 mi West 5.8 mph - N/A   Clear
2:53 AM 45.0 °F 40.1 °F 37.9 °F 76% 30.14 in 10.0 mi West 9.2 mph - N/A   Clear
3:53 AM 45.0 °F 40.1 °F 37.9 °F 76% 30.13 in 10.0 mi West 9.2 mph - N/A   Clear
4:53 AM 45.0 °F 39.7 °F 37.9 °F 76% 30.13 in 10.0 mi West 10.4 mph - N/A   Clear
5:53 AM 45.0 °F 39.3 °F 37.0 °F 74% 30.14 in 10.0 mi WNW 11.5 mph - N/A   Clear
6:53 AM 43.0 °F 37.7 °F 36.0 °F 76% 30.16 in 10.0 mi WNW 9.2 mph - N/A   Clear
7:53 AM 45.0 °F 40.1 °F 37.0 °F 74% 30.18 in 10.0 mi West 9.2 mph - N/A   Clear
8:53 AM 50.0 °F - 37.4 °F 62% 30.19 in 10.0 mi West 10.4 mph - N/A   Clear
9:53 AM 57.0 °F - 39.9 °F 53% 30.19 in 10.0 mi WNW 12.7 mph - N/A   Clear
10:53 AM 62.1 °F - 39.9 °F 44% 30.21 in 10.0 mi NW 15.0 mph 21.9 mph N/A   Clear
11:53 AM 64.0 °F - 37.9 °F 38% 30.20 in 10.0 mi NW 17.3 mph 27.6 mph N/A   Clear
12:53 PM 64.9 °F - 37.9 °F 37% 30.19 in 10.0 mi NW 17.3 mph 26.5 mph N/A   Partly Cloudy
1:53 PM 66.9 °F - 36.0 °F 32% 30.18 in 10.0 mi NW 11.5 mph 21.9 mph N/A   Scattered Clouds
2:53 PM 68.0 °F - 35.1 °F 30% 30.16 in 10.0 mi NW 15.0 mph 21.9 mph N/A   Scattered Clouds
3:53 PM 71.1 °F - 34.0 °F 26% 30.14 in 10.0 mi NW 12.7 mph 23.0 mph N/A   Mostly Cloudy
4:53 PM 69.1 °F - 34.0 °F 27% 30.14 in 10.0 mi North 16.1 mph 21.9 mph N/A   Scattered Clouds
5:53 PM 68.0 °F - 35.1 °F 30% 30.15 in 10.0 mi NNW 12.7 mph - N/A   Clear
6:53 PM 64.9 °F - 37.0 °F 36% 30.16 in 10.0 mi North 10.4 mph - N/A   Clear
7:53 PM 55.9 °F - 39.9 °F 55% 30.18 in 10.0 mi North 5.8 mph - N/A   Clear
8:53 PM 50.0 °F - 41.0 °F 71% 30.21 in 10.0 mi North 3.5 mph - N/A   Clear
9:53 PM 50.0 °F - 41.0 °F 71% 30.22 in 10.0 mi NNE 3.5 mph - N/A   Clear
10:53 PM 48.9 °F - 42.1 °F 77% 30.22 in 10.0 mi Calm Calm - N/A   Clear
11:53 PM 44.1 °F 42.5 °F 39.0 °F 82% 30.22 in 10.0 mi West 3.5 mph - N/A   Clear